#timestamp,LO_Frequency,Hit 
1503644415.6,286046996.4,N
1503644435.5,286046995.9,N
1503644455.3,286046994.4,N
1503644475.1,286046992.7,N
1503644495.9,286046995.6,N
1503644515.7,286046992.9,N
1503644535.5,286046991.7,P
1503644555.4,286046998.5,N
1503644575.2,286046999.0,N
1503644595.0,286046997.7,N
1503644595.9,286046997.7,N
1503644615.8,286046999.0,N
1503644635.6,286047000.6,N
1503644655.4,286046999.9,N
1503644675.3,286046998.8,N
1503644695.1,286047002.7,N
1503644715.8,286047000.2,N
1503644735.7,286046997.1,N
1503644755.5,286047002.3,N
1503644775.3,286046996.9,N
1503644795.2,286046996.3,N
1503644815.9,286046996.0,N
1503644835.7,286046993.8,N
1503644855.5,286046997.7,N
1503644875.4,286046996.1,N
1503644895.2,286046995.2,N
1503644915.0,286046995.3,N
1503644915.9,286046995.3,N
1503644935.8,286046997.2,N
1503644955.6,286046995.1,N
1503644975.4,286046999.9,N
1503644995.3,286047000.2,N
1503645015.1,286047000.7,N
1503645035.8,286046999.1,N
1503645055.7,286046996.7,N
1503645075.5,286047000.5,N
1503645095.3,286046998.2,N
1503645115.2,286047000.9,N
1503645135.9,286047000.5,N
1503645155.7,286046995.2,N
1503645175.6,286047002.4,N
1503645195.4,286047003.8,N
1503645215.2,286047005.5,N
1503645235.0,286047006.0,N
1503645235.9,286047006.0,N
1503645255.8,286047001.8,N
1503645275.6,286047001.6,N
1503645295.4,286047000.0,N
1503645315.3,286047002.3,N
1503645335.1,286047002.8,N
1503645355.8,286047001.1,N
1503645375.7,286046999.9,N
1503645395.5,286047001.4,N
1503645415.3,286047003.1,N
1503645435.2,286047004.3,N
1503645455.9,286046999.8,N
1503645475.7,286047000.5,N
1503645495.6,286047002.8,N
1503645515.4,286047003.8,N
1503645535.2,286047001.4,N
1503645555.0,286047003.4,N
1503645556.0,286047003.4,N
1503645575.8,286047003.3,N
1503645595.6,286047002.4,N
1503645615.4,286047003.9,N
1503645635.3,286047001.3,N
1503645655.1,286046999.5,N
1503645675.8,286046996.0,N
1503645695.7,286046996.1,N
1503645715.5,286046993.6,N
1503645735.3,286046994.7,N
1503645755.2,286046992.6,N
1503645775.9,286046992.0,N
1503645795.7,286046993.2,N
1503645815.6,286046991.7,N
1503645835.4,286046995.5,N
1503645855.2,286046994.5,N
1503645875.1,286046992.4,N
1503645876.0,286046992.4,N
1503645895.8,286046987.8,N
1503645915.6,286046991.5,N
1503645935.5,286046993.1,N
1503645955.3,286046991.3,N
1503645975.1,286046991.0,N
1503645995.8,286046992.1,N
1503646015.7,286046997.5,N
1503646035.5,286046996.0,N
1503646055.3,286046993.4,N
1503646075.2,286046997.6,N
1503646095.0,286046996.0,N
1503646095.9,286046996.0,N
1503646115.7,286046993.9,N
1503646135.6,286046996.0,N
1503646155.4,286046995.4,N
1503646175.2,286046996.9,N
1503646195.1,286046996.5,N
1503646196.0,286046996.5,N
1503646215.8,286046995.6,N
1503646235.6,286046995.0,N
1503646255.5,286046998.9,N
1503646275.3,286047000.5,N
1503646295.1,286046998.4,N
1503646315.9,286046998.9,N
1503646335.7,286046998.8,N
1503646355.5,286047001.1,N
1503646375.4,286046998.2,N
1503646395.2,286046995.2,N
1503646415.0,286046993.7,N
1503646415.9,286046993.7,N
1503646435.8,286046992.1,N
1503646455.6,286046991.0,P
1503646475.4,286046990.4,P
1503646495.3,286046989.2,P
1503646515.1,286046988.4,P
1503646535.8,286046994.0,P
1503646555.7,286046994.7,N
1503646575.5,286046992.1,P
1503646595.3,286047003.7,P
1503646615.2,286047002.9,N
1503646635.0,286047008.3,N
1503646635.9,286047008.3,N
1503646655.7,286047011.1,N
1503646675.6,286047010.1,N
1503646695.4,286047011.5,N
1503646715.2,286047012.7,N
1503646735.1,286047015.9,N
1503646736.0,286047015.9,N
1503646755.8,286047020.0,N
1503646775.6,286047022.0,N
1503646795.5,286047021.9,N
1503646815.3,286047019.5,N
1503646835.1,286047015.7,N
1503646855.9,286047015.0,N
1503646875.7,286047016.9,N
1503646895.5,286047016.0,N
1503646915.3,286047014.4,N
1503646935.2,286047015.5,N
1503646955.0,286047014.0,N
1503646955.9,286047014.0,N
1503646975.7,286047011.2,N
1503646995.6,286047015.5,N
1503647015.4,286047014.6,N
1503647035.2,286047012.9,N
1503647055.1,286047011.0,N
1503647056.0,286047011.0,N
1503647075.8,286047012.7,N
1503647095.6,286047013.3,N
1503647115.5,286047015.4,P
1503647135.3,286046999.7,N
1503647155.1,286047002.4,N
1503647175.9,286047003.8,N
1503647195.7,286047002.9,N
1503647215.5,286047003.6,N
1503647235.4,286047001.5,N
1503647255.2,286047001.8,N
1503647275.0,286047001.8,N
1503647275.9,286047001.8,N
1503647295.8,286047000.3,N
1503647315.6,286047002.7,N
1503647335.4,286047001.6,N
1503647355.3,286046999.0,N
1503647375.1,286046996.7,N
1503647376.0,286046996.7,N
1503647395.8,286046999.4,N
1503647415.7,286046998.8,N
1503647435.5,286046999.6,N
1503647455.3,286046999.8,N
1503647475.1,286047002.7,N
1503647495.9,286047002.6,N
1503647515.7,286046998.2,N
1503647535.5,286047002.7,N
1503647555.4,286047004.2,N
1503647575.2,286047001.3,N
1503647595.0,286047004.0,N
1503647595.9,286047004.0,N
1503647615.8,286047002.3,N
1503647635.6,286047000.2,N
1503647655.4,286047002.6,N
1503647675.3,286047002.5,N
1503647695.1,286046999.9,N
1503647696.0,286046999.9,N
1503647715.8,286046999.0,N
1503647735.7,286046997.6,N
1503647755.5,286046994.5,N
1503647775.3,286046993.4,N
1503647795.2,286046997.8,N
1503647815.9,286046996.8,N
1503647835.7,286046996.8,N
1503647855.5,286046997.4,N
1503647875.4,286046995.3,N
1503647895.2,286046996.1,N
1503647915.0,286046997.9,N
1503647915.9,286046997.9,N
1503647935.8,286046996.0,N
1503647955.6,286046997.5,N
1503647975.4,286046997.7,N
1503647995.3,286046995.6,N
